This demonstration page uses our WeatherBlox Daily Observations layout. Learn more.

Left ArrowRight Arrow

40.92501, -98.34201

Hourly Observations for December 2, 2022

Temp ( °F °C ) Dew Point ( °F °C ) Humidity (%) Winds ( mph kmh ) Pressure ( in mb ) Visibility ( mi km ) Precip ( " mm )
12:53 am 00:53 Clear 40 4.4 27 -2.8 59 59 S 18 30 29.69 1005 10 16 0.00 0.00
1:53 am 01:53 Clear 40 4.4 27 -2.8 59 59 S 18 30 29.65 1004 10 16 0.00 0.00
2:53 am 02:53 Clear 38 3.3 26 -3.3 62 62 S 17 28 29.63 1004 10 16 0.00 0.00
3:53 am 03:53 Clear 37 2.8 27 -2.8 67 67 S 17 28 29.61 1003 10 16 0.00 0.00
4:53 am 04:53 Clear 37 2.8 28 -2.2 70 70 SSW 14 22 29.60 1002 10 16 0.00 0.00
5:53 am 05:53 Clear 35 1.7 27 -2.8 72 72 WSW 8 13 29.61 1003 10 16 0.00 0.00
6:53 am 06:53 Clear 35 1.7 28 -2.2 75 75 S 6 9 29.59 1002 10 16 0.00 0.00
7:53 am 07:53 Sunny 34 1.1 28 -2.2 79 79 S 6 9 29.57 1001 10 16 0.00 0.00
8:53 am 08:53 Sunny 37 2.8 29 -1.7 72 72 SSW 8 13 29.57 1001 10 16 0.00 0.00
9:53 am 09:53 Sunny 41 5 31 -0.6 67 67 SW 10 17 29.56 1001 10 16 0.00 0.00
10:53 am 10:53 Sunny 47 8.3 31 -0.6 53 53 SW 12 19 29.53 1000 10 16 0.00 0.00
11:53 am 11:53 Sunny 53 11.7 29 -1.7 39 39 W 14 22 29.52 1000 10 16 0.00 0.00
12:25 pm 12:25 Sunny 53 11.7 30 -1.1 41 41 NW 16 26 29.54 1000 10 16 0.00 0.00
12:53 pm 12:53 Sunny 51 10.6 29 -1.7 42 42 N 16 26 29.59 1002 10 16 0.00 0.00
1:53 pm 13:53 Sunny 47 8.3 27 -2.8 45 45 NNW 26 43 29.66 1004 10 16 0.00 0.00
2:53 pm 14:53 Sunny 41 5 23 -5 48 48 NNW 23 37 29.77 1008 10 16 0.00 0.00
3:53 pm 15:53 Sunny 33 0.6 18 -7.8 53 53 NNW 25 41 29.92 1013 10 16 0.00 0.00
4:53 pm 16:53 Sunny 29 -1.7 16 -8.9 58 58 NNW 25 41 30.02 1017 10 16 0.00 0.00
5:53 pm 17:53 Mostly Clear 27 -2.8 14 -10 57 57 NNW 24 39 30.11 1020 10 16 0.00 0.00
6:53 pm 18:53 Clear 25 -3.9 13 -10.6 60 60 NNW 29 46 30.20 1023 10 16 0.00 0.00
7:53 pm 19:53 Clear 23 -5 10 -12.2 57 57 NNW 31 50 30.27 1025 10 16 0.00 0.00
8:53 pm 20:53 Clear 21 -6.1 9 -12.8 59 59 NNW 22 35 30.32 1027 10 16 0.00 0.00
9:53 pm 21:53 Clear 20 -6.7 7 -13.9 56 56 NNW 21 33 30.37 1028 10 16 0.00 0.00
10:53 pm 22:53 Clear 18 -7.8 7 -13.9 61 61 NNW 17 28 30.40 1029 10 16 0.00 0.00
11:53 pm 23:53 Clear 17 -8.3 7 -13.9 64 64 NNW 13 20 30.42 1030 10 16 0.00 0.00

Powered by AerisWeather